Tracy, MN

11:55 PM CDT on March 28, 2017 (GMT -0500)
Tracy

Weather History for KTKC - January, 2014

Change the Weather History Date:

Wednesday, January 29, 2014

  Actual Average (KMML) Record (KMML)
Temperature  
Mean Temperature 18 °F -  
Max Temperature 36 °F 22 °F 50 °F (1990)
Min Temperature 0 °F 5 °F -26 °F (1966)
Degree Days  
Heating Degree Days 47    
Moisture  
Dew Point 7 °F    
Average Humidity 61    
Maximum Humidity 77    
Minimum Humidity 47    
Precipitation  
Precipitation 0.00 in - - ()
Sea Level Pressure  
Sea Level Pressure 29.75 in    
Wind  
Wind Speed 14 mph (SW)    
Max Wind Speed 28 mph    
Max Gust Speed 39 mph    
Visibility 10 miles    
Events      
Averages and records for this station are not official NWS values.
T = Trace of Precipitation, MM = Missing Value Source: NWS Daily Summary

Daily Weather History Graph

Daily Weather History Graph

Search for Another Location

Airport or City:

Trip Planner

Search our weather history database for the weather conditions in past years. The results will help you decide how hot, cold, wet, or windy it might be!

Date:

Astronomy

Jan. 29, 2014 Rise Set
Actual Time 7:43 AM CST 5:28 PM CST
Civil Twilight 7:12 AM CST 5:59 PM CST
Nautical Twilight 6:37 AM CST 6:34 PM CST
Astronomical Twilight 6:03 AM CST 7:08 PM CST
Moon 6:21 AM CST 4:29 PM CST
Length of Visible Light 10h 46m
Length of Day
9h 44m
Waning Crescent, 2% of the Moon is Illuminated
Jan 29
Waning Crescent
Jan 30
New
Feb 6
First Quarter
Feb 14
Full
Feb 22
Last Quarter

Hourly Weather History & Observations

Time (CST) Temp. Windchill Dew Point Humidity Pressure Visibility Wind Dir Wind Speed Gust Speed Precip Events Conditions
12:18 AM 0.5 °F -15.6 °F -7.8 °F 68% 30.07 in 10.0 mi SW 10.4 mph - N/A   Clear
12:38 AM 0.5 °F -13.6 °F -8.0 °F 68% 30.07 in 10.0 mi SW 8.1 mph - N/A   Clear
12:58 AM 1.0 °F -14.9 °F -7.6 °F 67% 30.06 in 10.0 mi SW 10.4 mph - N/A   Clear
1:18 AM 1.2 °F -15.6 °F -7.6 °F 67% 30.06 in 10.0 mi SW 11.5 mph - N/A   Clear
1:38 AM 2.3 °F -15.7 °F -6.9 °F 66% 30.05 in 10.0 mi SW 13.8 mph - N/A   Clear
1:57 AM 2.8 °F -15.0 °F -6.3 °F 66% 30.05 in 10.0 mi SW 13.8 mph - N/A   Clear
2:17 AM 2.8 °F -17.0 °F -6.3 °F 66% 30.04 in 10.0 mi SW 17.3 mph - N/A   Clear
2:37 AM 3.2 °F -15.3 °F -6.2 °F 65% 30.03 in 10.0 mi SW 15.0 mph - N/A   Clear
2:58 AM 3.2 °F -15.3 °F -6.2 °F 65% 30.02 in 10.0 mi WSW 15.0 mph 20.7 mph N/A   Clear
3:17 AM 3.2 °F -14.6 °F -6.0 °F 66% 30.02 in 10.0 mi SW 13.8 mph - N/A   Clear
3:38 AM 3.6 °F -14.1 °F -6.0 °F 65% 30.01 in 10.0 mi SW 13.8 mph - N/A   Clear
3:57 AM 3.9 °F -13.7 °F -5.8 °F 64% 30.00 in 10.0 mi SW 13.8 mph - N/A   Clear
4:18 AM 4.1 °F -14.7 °F -5.4 °F 65% 29.99 in 10.0 mi SW 16.1 mph - N/A   Clear
4:38 AM 4.1 °F -14.7 °F -5.3 °F 65% 29.98 in 10.0 mi SW 16.1 mph - N/A   Clear
4:58 AM 3.7 °F -15.8 °F -5.4 °F 66% 29.97 in 10.0 mi SW 17.3 mph - N/A   Clear
5:18 AM 3.7 °F -15.2 °F -5.3 °F 66% 29.96 in 10.0 mi SW 16.1 mph - N/A   Clear
5:38 AM 3.7 °F -15.8 °F -5.1 °F 67% 29.95 in 10.0 mi SW 17.3 mph - N/A   Clear
5:58 AM 3.6 °F -15.4 °F -4.9 °F 68% 29.94 in 10.0 mi SW 16.1 mph - N/A   Clear
6:18 AM 4.8 °F -14.9 °F -4.2 °F 66% 29.92 in 10.0 mi SW 18.4 mph - N/A   Clear
6:38 AM 6.3 °F -12.0 °F -3.6 °F 64% 29.91 in 10.0 mi SW 16.1 mph - N/A   Clear
6:57 AM 6.8 °F -12.4 °F -3.5 °F 63% 29.90 in 10.0 mi SW 18.4 mph - N/A   Clear
7:17 AM 6.3 °F -13.1 °F -3.8 °F 63% 29.89 in 10.0 mi SSW 18.4 mph - N/A   Clear
7:37 AM 5.9 °F -14.1 °F -4.0 °F 64% 29.88 in 10.0 mi SW 19.6 mph - N/A   Clear
7:58 AM 5.7 °F -15.3 °F -4.0 °F 64% 29.87 in 10.0 mi SW 21.9 mph - N/A   Clear
8:18 AM 7.5 °F -12.4 °F -3.1 °F 62% 29.87 in 10.0 mi SW 20.7 mph - N/A   Clear
8:37 AM 9.0 °F -11.0 °F -2.2 °F 61% 29.85 in 10.0 mi SSW 21.9 mph - N/A   Clear
8:58 AM 11.1 °F -8.5 °F -1.7 °F 57% 29.84 in 10.0 mi SW 23.0 mph 29.9 mph N/A   Clear
9:18 AM 11.8 °F -7.2 °F -1.1 °F 56% 29.84 in 10.0 mi SW 21.9 mph - N/A   Clear
9:37 AM 12.9 °F -6.5 °F 0.5 °F 58% 29.84 in 10.0 mi SW 24.2 mph - N/A   Clear
9:58 AM 14.7 °F -3.8 °F 1.9 °F 57% 29.83 in 10.0 mi SSW 23.0 mph 27.6 mph N/A   Clear
10:18 AM 18.5 °F 1.6 °F 4.3 °F 54% 29.81 in 10.0 mi SSW 21.9 mph 27.6 mph N/A   Clear
10:37 AM 19.2 °F 0.9 °F 3.0 °F 49% 29.80 in 10.0 mi SW 27.6 mph 33.4 mph N/A   Clear
10:57 AM 21.0 °F 3.9 °F 5.4 °F 51% 29.79 in 10.0 mi SW 25.3 mph 29.9 mph N/A   Clear
11:18 AM 23.4 °F 8.1 °F 6.6 °F 49% 29.77 in 10.0 mi SSW 21.9 mph 29.9 mph N/A   Clear
11:38 AM 23.5 °F 8.3 °F 6.6 °F 49% 29.75 in 10.0 mi SSW 21.9 mph 29.9 mph N/A   Clear
11:58 AM 25.5 °F 10.6 °F 8.1 °F 48% 29.73 in 10.0 mi SSW 23.0 mph 32.2 mph N/A   Clear
12:18 PM 25.2 °F 9.5 °F 9.9 °F 52% 29.71 in 10.0 mi SSW 25.3 mph 33.4 mph N/A   Clear
12:38 PM 28.0 °F 15.3 °F 11.3 °F 50% 29.68 in 10.0 mi SSW 18.4 mph 29.9 mph N/A   Clear
12:57 PM 29.3 °F 15.0 °F 11.3 °F 47% 29.67 in 10.0 mi SSW 25.3 mph 31.1 mph N/A   Clear
1:18 PM 30.0 °F 16.9 °F 13.3 °F 50% 29.64 in 10.0 mi SSW 21.9 mph 33.4 mph N/A   Clear
1:38 PM 32.0 °F 18.9 °F 15.4 °F 51% 29.63 in 10.0 mi SSW 24.2 mph 31.1 mph N/A   Clear
1:58 PM 32.0 °F 18.1 °F 15.4 °F 51% 29.61 in 10.0 mi SSW 27.6 mph 34.5 mph N/A   Clear
2:17 PM 32.2 °F 18.9 °F 16.5 °F 53% 29.60 in 10.0 mi SSW 25.3 mph 36.8 mph N/A   Clear
2:38 PM 32.5 °F 19.1 °F 17.1 °F 53% 29.59 in 10.0 mi SSW 26.5 mph 39.1 mph N/A   Clear
2:57 PM 33.1 °F 20.9 °F 18.1 °F 54% 29.59 in 10.0 mi SSW 21.9 mph 32.2 mph N/A   Mostly Cloudy
3:17 PM 34.2 °F 23.0 °F 18.9 °F 54% 29.59 in 10.0 mi SSW 19.6 mph 26.5 mph N/A   Mostly Cloudy
3:38 PM 35.2 °F 24.7 °F 18.3 °F 50% 29.58 in 10.0 mi SSW 18.4 mph 25.3 mph N/A   Scattered Clouds
3:58 PM 35.6 °F 26.2 °F 17.8 °F 48% 29.58 in 10.0 mi SSW 15.0 mph 21.9 mph N/A   Scattered Clouds
4:18 PM 35.8 °F 25.7 °F 18.1 °F 49% 29.57 in 10.0 mi SSW 17.3 mph 23.0 mph N/A   Mostly Cloudy
4:37 PM 36.9 °F 27.1 °F 18.7 °F 48% 29.57 in 10.0 mi SW 17.3 mph 25.3 mph N/A   Scattered Clouds
4:58 PM 36.5 °F 28.7 °F 19.6 °F 50% 29.58 in 10.0 mi SW 11.5 mph - N/A   Clear
5:18 PM 34.3 °F 27.7 °F 20.3 °F 57% 29.57 in 10.0 mi SSW 8.1 mph - N/A   Clear
5:38 PM 33.3 °F 30.2 °F 20.8 °F 60% 29.58 in 10.0 mi WSW 3.5 mph - N/A   Clear
5:58 PM 32.2 °F - 21.0 °F 63% 29.58 in 10.0 mi Calm Calm - N/A   Scattered Clouds
6:18 PM 30.7 °F - 20.3 °F 65% 29.58 in 10.0 mi Calm Calm - N/A   Overcast
6:37 PM 28.9 °F - 20.1 °F 70% 29.58 in 10.0 mi Calm Calm - N/A   Scattered Clouds
6:58 PM 26.4 °F - 18.5 °F 72% 29.58 in 10.0 mi Calm Calm - N/A   Clear
7:18 PM 26.6 °F - 18.7 °F 72% 29.57 in 10.0 mi Calm Calm - N/A   Clear
7:38 PM 24.8 °F - 18.1 °F 76% 29.57 in 10.0 mi Calm Calm - N/A   Clear
7:57 PM 24.8 °F - 16.3 °F 70% 29.56 in 10.0 mi Calm Calm - N/A   Clear
8:17 PM 27.5 °F - 17.6 °F 66% 29.56 in 10.0 mi Calm Calm - N/A   Clear
8:38 PM 24.1 °F - 17.8 °F 77% 29.55 in 10.0 mi Calm Calm - N/A   Clear
8:58 PM 27.7 °F - 19.0 °F 70% 29.55 in 10.0 mi Calm Calm - N/A   Clear
9:18 PM 28.2 °F - 18.1 °F 66% 29.53 in 10.0 mi Calm Calm - N/A   Clear
9:37 PM 28.6 °F - 17.6 °F 64% 29.52 in 10.0 mi Calm Calm - N/A   Scattered Clouds
9:58 PM 28.2 °F - 17.6 °F 64% 29.52 in 10.0 mi Calm Calm - N/A   Overcast
10:18 PM 28.2 °F - 16.9 °F 63% 29.51 in 10.0 mi Calm Calm - N/A   Overcast
10:38 PM 28.8 °F - 16.9 °F 61% 29.50 in 10.0 mi Calm Calm - N/A   Overcast
10:58 PM 29.3 °F - 16.7 °F 59% 29.50 in 10.0 mi Calm Calm - N/A   Overcast
11:18 PM 27.7 °F - 17.4 °F 65% 29.50 in 10.0 mi Calm Calm - N/A   Overcast
11:38 PM 28.0 °F - 17.1 °F 63% 29.49 in 10.0 mi Calm Calm - N/A   Overcast
11:58 PM 31.8 °F - 15.6 °F 51% 29.49 in 10.0 mi Calm Calm - N/A   Mostly Cloudy